Home > Time Zones > World Clock > Weather > Ghana > Accra > Past weeks

Flag for Ghana Weather past 2 weeks in Accra, Ghana

Now
77 °F

Thunderstorms. Passing clouds.


Feels Like: 78 °F
Forecast: 79 / 84 °F
Wind: 8 mph from West

Location: Accra Airport

Current Time: May 23, 2015 at 6:43:38 AM

Latest Report: May 23, 2015 at 6:00 AM


Visibility: N/A

Pressure: 29.92 "Hg

Humidity: 94%

Dew point: 75 °F

Location of AccraLocation

Historic Weather in Accra — Graph

°F

Accra temperature yesterday

Maximum temperature yesterday: 91 °F (at 1:00 PM)
Minimum temperature yesterday: 81 °F (at 2:55 AM)
Average temperature yesterday: 84 °F

Past Weeks' High & Low Weather Summary

 TemperatureHumidityPressure
High91 °F (May 8, 1:00 PM)94% (May 8, 6:00 AM)29.98 "Hg (May 8, 6:00 AM)
Low77 °F (May 14, 7:00 PM)59% (May 8, 1:00 PM)29.77 "Hg (May 14, 4:00 PM)
Average84 °F80%29.88 "Hg
* Reported May 8 5:00 AM — May 23 5:00 AM, Accra, Weather by CustomWeather, © 2015

Note: Actual official high and low records may vary slightly from our data, if they occured in-between our weather recording intervals... More about our weather records

Advertising

Accra weather history for previous 24 hours

 ConditionsComfort  
Time TempWeatherWind HumidityBarometerVisibility
5:00 AM
Sat, May 23
77 °FClear.6 mph94%29.89 "Hg10 mi
4:00 AM77 °FClear.9 mph89%29.89 "Hg10 mi
3:01 AM77 °FThunderstorms. Passing clouds.9 mph89%29.89 "HgN/A
1:00 AM81 °FThunderstorms. Passing clouds.3 mph94%29.92 "Hg5 mi
12:00 AM82 °FThunderstorms. Passing clouds.12 mph89%29.92 "Hg5 mi
11:00 PM
Fri, May 22
84 °FWarm.13 mph84%29.95 "HgN/A
10:00 PM84 °FPartly cloudy.17 mph84%29.92 "HgN/A
9:00 PM84 °FPartly cloudy.15 mph84%29.92 "HgN/A
8:00 PM84 °FPassing clouds.13 mph84%29.92 "HgN/A
7:00 PM84 °FPassing clouds.15 mph84%29.89 "HgN/A
6:00 PM84 °FPassing clouds.13 mph84%29.86 "HgN/A
5:00 PM84 °FPassing clouds.15 mph79%29.86 "HgN/A
4:00 PM86 °FPassing clouds.17 mph75%29.86 "HgN/A
3:00 PM88 °FSunny.16 mph70%29.86 "Hg10 mi
2:00 PM90 °FPassing clouds.12 mph67%29.86 "HgN/A
1:00 PM91 °FPassing clouds.12 mph59%29.89 "HgN/A
11:00 AM88 °FBroken clouds.10 mph75%29.92 "HgN/A
9:00 AM86 °FScattered clouds.13 mph75%29.95 "HgN/A
8:00 AM84 °FPassing clouds.13 mph79%29.95 "HgN/A
7:00 AM82 °FThunderstorms. Passing clouds.9 mph84%29.92 "HgN/A
6:00 AM81 °FPassing clouds.7 mph89%29.89 "HgN/A
Weather by CustomWeather, © 2015

See weather overviewHow to use our weather pages